Lake George, CO

4:00 PM MST on February 13, 2016 (GMT -0700)
Wilkerson Pass

Weather History for K4BM - March, 2014

Change the Weather History Date:

Monday, March 10, 2014

  Actual Average (KAFF) Record (KAFF)
Temperature  
Mean Temperature 37 °F -  
Max Temperature 46 °F 46 °F 68 °F (2014)
Min Temperature 28 °F 23 °F 12 °F (1998)
Degree Days  
Heating Degree Days 28    
Moisture  
Dew Point -7 °F    
Average Humidity 18    
Maximum Humidity 30    
Minimum Humidity 9    
Precipitation  
Precipitation 0.00 in - - ()
Sea Level Pressure  
Sea Level Pressure 30.15 in    
Wind  
Wind Speed 11 mph (WSW)    
Max Wind Speed 16 mph    
Max Gust Speed 30 mph    
Visibility 10 miles    
Events      
Averages and records for this station are not official NWS values.
T = Trace of Precipitation, MM = Missing Value Source: NWS Daily Summary

Daily Weather History Graph

Daily Weather History Graph

Search for Another Location

Airport or City:

Trip Planner

Search our weather history database for the weather conditions in past years. The results will help you decide how hot, cold, wet, or windy it might be!

Date:

Astronomy

Mar. 10, 2014 Rise Set
Actual Time 7:21 AM MDT 7:04 PM MDT
Civil Twilight 6:54 AM MDT 7:30 PM MDT
Nautical Twilight 6:23 AM MDT 8:01 PM MDT
Astronomical Twilight 5:52 AM MDT 8:32 PM MDT
Moon 1:51 PM MDT (3/10) 3:32 AM MDT (3/10)
Length of Visible Light 12h 36m
Length of Day
11h 43m
Waxing Gibbous, 70% of the Moon is Illuminated
Mar 10
Waxing Gibbous
Mar 16
Full
Mar 23
Last Quarter
Mar 30
New
Apr 7
First Quarter

Hourly Weather History & Observations

Time (MDT) Temp. Windchill Dew Point Humidity Pressure Visibility Wind Dir Wind Speed Gust Speed Precip Events Conditions
12:20 AM 32.0 °F 23.0 °F -16.6 °F 12% 30.34 in 10.0 mi West 11.5 mph 19.6 mph N/A   Scattered Clouds
12:40 AM 32.0 °F 23.6 °F -18.4 °F 11% 30.33 in 10.0 mi West 10.4 mph 21.9 mph N/A   Clear
1:00 AM 32.0 °F 23.0 °F -16.6 °F 12% 30.33 in 10.0 mi West 11.5 mph 18.4 mph N/A   Mostly Cloudy
1:20 AM 32.0 °F 23.0 °F -18.4 °F 11% 30.33 in 10.0 mi West 11.5 mph 21.9 mph N/A   Overcast
1:39 AM 32.0 °F 24.2 °F -16.6 °F 12% 30.33 in 10.0 mi West 9.2 mph 21.9 mph N/A   Overcast
2:00 AM 32.0 °F 23.0 °F -16.6 °F 12% 30.32 in 10.0 mi West 11.5 mph 23.0 mph N/A   Overcast
2:20 AM 32.0 °F 21.6 °F -16.6 °F 12% 30.32 in 10.0 mi West 15.0 mph 25.3 mph N/A   Overcast
2:40 AM 32.0 °F 22.5 °F -22.0 °F 9% 30.31 in 10.0 mi West 12.7 mph 23.0 mph N/A   Overcast
2:59 AM 32.0 °F 23.0 °F -18.4 °F 11% 30.29 in 10.0 mi West 11.5 mph 18.4 mph N/A   Overcast
3:20 AM 32.0 °F 23.0 °F -18.4 °F 11% 30.28 in 10.0 mi West 11.5 mph 23.0 mph N/A   Overcast
3:40 AM 32.0 °F 23.6 °F -16.6 °F 12% 30.28 in 10.0 mi West 10.4 mph 20.7 mph N/A   Overcast
4:00 AM 32.0 °F 24.2 °F -22.0 °F 9% 30.28 in 10.0 mi West 9.2 mph 21.9 mph N/A   Mostly Cloudy
4:20 AM 32.0 °F 23.0 °F -20.2 °F 10% 30.27 in 10.0 mi West 11.5 mph 23.0 mph N/A   Mostly Cloudy
4:40 AM 32.0 °F 24.2 °F -18.4 °F 11% 30.27 in 10.0 mi West 9.2 mph - N/A   Overcast
5:00 AM 32.0 °F 23.6 °F -18.4 °F 11% 30.27 in 10.0 mi West 10.4 mph 24.2 mph N/A   Overcast
5:19 AM 32.0 °F 23.0 °F -16.6 °F 12% 30.28 in 10.0 mi West 11.5 mph 19.6 mph N/A   Overcast
5:40 AM 32.0 °F 23.6 °F -18.4 °F 11% 30.28 in 10.0 mi West 10.4 mph 18.4 mph N/A   Mostly Cloudy
6:00 AM 30.2 °F 21.9 °F -16.6 °F 13% 30.26 in 10.0 mi West 9.2 mph 20.7 mph N/A   Scattered Clouds
6:20 AM 32.0 °F 23.0 °F -14.8 °F 13% 30.25 in 10.0 mi WSW 11.5 mph 21.9 mph N/A   Mostly Cloudy
6:40 AM 30.2 °F 20.2 °F -14.8 °F 14% 30.24 in 10.0 mi West 12.7 mph 24.2 mph N/A   Scattered Clouds
7:00 AM 30.2 °F 19.8 °F -14.8 °F 14% 30.24 in 10.0 mi West 13.8 mph 20.7 mph N/A   Scattered Clouds
7:18 AM 30.2 °F 20.2 °F -14.8 °F 14% 30.25 in 10.0 mi West 12.7 mph 23.0 mph N/A   Clear
7:40 AM 32.0 °F 22.5 °F -16.6 °F 12% 30.25 in 10.0 mi West 12.7 mph 23.0 mph N/A   Clear
8:00 AM 32.0 °F 22.1 °F -16.6 °F 12% 30.24 in 10.0 mi West 13.8 mph 25.3 mph N/A   Clear
8:20 AM 32.0 °F 21.6 °F -16.6 °F 12% 30.24 in 10.0 mi West 15.0 mph 24.2 mph N/A   Clear
8:40 AM 32.0 °F 22.5 °F -16.6 °F 12% 30.24 in 10.0 mi West 12.7 mph 23.0 mph N/A   Clear
9:00 AM 32.0 °F 22.5 °F -16.6 °F 12% 30.24 in 10.0 mi West 12.7 mph 21.9 mph N/A   Clear
9:20 AM 33.8 °F 23.9 °F -16.6 °F 11% 30.23 in 10.0 mi West 15.0 mph 26.5 mph N/A   Clear
9:40 AM 33.8 °F 23.9 °F -16.6 °F 11% 30.23 in 10.0 mi West 15.0 mph 24.2 mph N/A   Clear
10:00 AM 33.8 °F 24.3 °F -13.0 °F 13% 30.22 in 10.0 mi West 13.8 mph 25.3 mph N/A   Scattered Clouds
10:20 AM 33.8 °F 23.5 °F -13.0 °F 13% 30.21 in 10.0 mi West 16.1 mph 29.9 mph N/A   Mostly Cloudy
10:40 AM 32.0 °F 23.0 °F -13.0 °F 14% 30.21 in 10.0 mi West 11.5 mph 26.5 mph N/A   Overcast
11:00 AM 32.0 °F 22.5 °F -13.0 °F 14% 30.21 in 10.0 mi West 12.7 mph 21.9 mph N/A   Scattered Clouds
11:20 AM 33.8 °F 25.8 °F -13.0 °F 13% 30.21 in 10.0 mi West 10.4 mph 24.2 mph N/A   Scattered Clouds
11:40 AM 35.6 °F 28.6 °F -9.4 °F 14% 30.20 in 10.0 mi WSW 9.2 mph - N/A   Clear
12:00 PM 37.4 °F 33.8 °F -7.6 °F 15% 30.19 in 10.0 mi WSW 4.6 mph - N/A   Clear
12:20 PM 41.0 °F 35.8 °F -0.4 °F 18% 30.19 in 10.0 mi SW 8.1 mph - N/A   Clear
12:40 PM 42.8 °F 38.0 °F -4.0 °F 14% 30.18 in 10.0 mi SW 8.1 mph - N/A   Clear
1:00 PM 44.6 °F 39.2 °F -0.4 °F 15% 30.17 in 10.0 mi SW 10.4 mph 16.1 mph N/A   Clear
1:20 PM 44.6 °F 39.2 °F -4.0 °F 13% 30.15 in 10.0 mi SW 10.4 mph 16.1 mph N/A   Clear
1:40 PM 44.6 °F 39.2 °F -4.0 °F 13% 30.14 in 10.0 mi SW 10.4 mph 18.4 mph N/A   Clear
2:00 PM 44.6 °F 40.2 °F 1.4 °F 17% 30.14 in 10.0 mi SSW 8.1 mph 16.1 mph N/A   Clear
2:20 PM 42.8 °F 37.5 °F 3.2 °F 19% 30.12 in 10.0 mi SSW 9.2 mph 17.3 mph N/A   Clear
2:39 PM 44.6 °F 39.2 °F 6.8 °F 21% 30.12 in 10.0 mi SSW 10.4 mph 19.6 mph N/A   Clear
3:00 PM 44.6 °F 40.2 °F 10.4 °F 25% 30.12 in 10.0 mi SSW 8.1 mph - N/A   Clear
3:20 PM 44.6 °F 40.7 °F 10.4 °F 25% 30.12 in 10.0 mi SW 6.9 mph - N/A   Clear
3:40 PM 46.4 °F 42.9 °F 12.2 °F 25% 30.10 in 10.0 mi SW 6.9 mph - N/A   Clear
4:00 PM 44.6 °F 40.7 °F 12.2 °F 27% 30.09 in 10.0 mi SSW 6.9 mph - N/A   Clear
4:20 PM 44.6 °F 39.7 °F 8.6 °F 23% 30.08 in 10.0 mi SSW 9.2 mph 19.6 mph N/A   Clear
4:40 PM 42.8 °F 36.6 °F 8.6 °F 25% 30.07 in 10.0 mi SSW 11.5 mph 20.7 mph N/A   Clear
5:00 PM 41.0 °F 33.5 °F 8.6 °F 26% 30.05 in 10.0 mi SSW 13.8 mph 23.0 mph N/A   Clear
5:20 PM 41.0 °F 33.5 °F 8.6 °F 26% 30.05 in 10.0 mi SW 13.8 mph 23.0 mph N/A   Clear
5:40 PM 39.2 °F 31.6 °F 6.8 °F 26% 30.04 in 10.0 mi SSW 12.7 mph 23.0 mph N/A   Clear
6:00 PM 37.4 °F 28.5 °F 8.6 °F 30% 30.03 in 10.0 mi SSW 15.0 mph 23.0 mph N/A   Clear
6:20 PM 35.6 °F 26.6 °F 6.8 °F 30% 30.03 in 10.0 mi SSW 13.8 mph 24.2 mph N/A   Clear
6:40 PM 35.6 °F 27.1 °F 5.0 °F 28% 30.03 in 10.0 mi SSW 12.7 mph 20.7 mph N/A   Clear
7:00 PM 33.8 °F 26.4 °F 5.0 °F 30% 30.04 in 10.0 mi SSW 9.2 mph 18.4 mph N/A   Clear
7:20 PM 32.0 °F 23.6 °F 3.2 °F 30% 30.02 in 10.0 mi SW 10.4 mph 18.4 mph N/A   Clear
7:40 PM 33.8 °F 26.4 °F 3.2 °F 28% 30.02 in 10.0 mi SW 9.2 mph 18.4 mph N/A   Clear
8:00 PM 32.0 °F 22.5 °F -0.4 °F 25% 30.00 in 10.0 mi SSW 12.7 mph 24.2 mph N/A   Clear
8:20 PM 32.0 °F 22.5 °F -4.0 °F 21% 29.99 in 10.0 mi SSW 12.7 mph 23.0 mph N/A   Clear
8:40 PM 32.0 °F 23.0 °F -5.8 °F 20% 29.98 in 10.0 mi SSW 11.5 mph 23.0 mph N/A   Clear
9:00 PM 32.0 °F 25.6 °F -4.0 °F 21% 29.98 in 10.0 mi SSW 6.9 mph 20.7 mph N/A   Clear
9:20 PM 32.0 °F 23.6 °F -4.0 °F 21% 29.97 in 10.0 mi SSW 10.4 mph 18.4 mph N/A   Clear
9:39 PM 32.0 °F 23.0 °F -5.8 °F 20% 29.96 in 10.0 mi SSW 11.5 mph 20.7 mph N/A   Clear
10:00 PM 32.0 °F 22.1 °F -5.8 °F 20% 29.95 in 10.0 mi SW 13.8 mph 26.5 mph N/A   Clear
10:20 PM 32.0 °F 22.1 °F -5.8 °F 20% 29.94 in 10.0 mi SSW 13.8 mph 24.2 mph N/A   Clear
10:40 PM 30.2 °F 19.3 °F -2.2 °F 25% 29.93 in 10.0 mi SSW 15.0 mph 21.9 mph N/A   Clear
11:00 PM 30.2 °F 19.8 °F -0.4 °F 27% 29.93 in 10.0 mi SSW 13.8 mph 23.0 mph N/A   Clear
11:19 PM 30.2 °F 19.8 °F -0.4 °F 27% 29.93 in 10.0 mi SSW 13.8 mph 21.9 mph N/A   Clear
11:40 PM 28.4 °F 18.5 °F -0.4 °F 29% 29.93 in 10.0 mi SSW 11.5 mph 19.6 mph N/A   Clear
11:59 PM 28.4 °F 21.2 °F -0.4 °F 29% 29.92 in 10.0 mi SW 6.9 mph - N/A   Clear